Tekamah, NE

9:08 AM CDT on August 24, 2016 (GMT -0500)
Tekamah

Weather History for KTQE - November, 2012

Change the Weather History Date:

Friday, November 2, 2012

  Actual Average Record
Temperature  
Mean Temperature 40 °F -  
Max Temperature 52 °F 52 °F 82 °F (2005)
Min Temperature 30 °F 34 °F 8 °F (1951)
Degree Days  
Heating Degree Days 24    
Moisture  
Dew Point 29 °F    
Average Humidity 65    
Maximum Humidity 82    
Minimum Humidity 43    
Precipitation  
Precipitation 0.00 in - - ()
Sea Level Pressure  
Sea Level Pressure 30.03 in    
Wind  
Wind Speed 6 mph (ENE)    
Max Wind Speed 13 mph    
Max Gust Speed -    
Visibility 10 miles    
Events      
Averages and records for this station are not official NWS values.
T = Trace of Precipitation, MM = Missing Value Source: NWS Daily Summary

Daily Weather History Graph

Daily Weather History Graph

Search for Another Location

Airport or City:

Trip Planner

Search our weather history database for the weather conditions in past years. The results will help you decide how hot, cold, wet, or windy it might be!

Date:

Astronomy

Nov. 02, 2012 Rise Set
Actual Time 7:58 AM CDT 6:17 PM CDT
Civil Twilight 7:29 AM CDT 6:46 PM CDT
Nautical Twilight 6:56 AM CDT 7:19 PM CDT
Astronomical Twilight 6:24 AM CDT 7:51 PM CDT
Moon 9:03 PM CDT (11/2) 11:21 AM CDT (11/2)
Length of Visible Light 11h 16m
Length of Day
10h 18m
Waning Gibbous, 87% of the Moon is Illuminated
Nov 2
Waning Gibbous
Nov 6
Last Quarter
Nov 13
New
Nov 20
First Quarter
Nov 28
Full

Hourly Weather History & Observations

Time (CDT) Temp. Windchill Dew Point Humidity Pressure Visibility Wind Dir Wind Speed Gust Speed Precip Events Conditions
12:54 AM 35.1 °F 30.1 °F 28.0 °F 76% 30.03 in 9.0 mi NNE 5.8 mph - N/A   Clear
1:54 AM 30.9 °F 25.2 °F 26.1 °F 82% 30.03 in 8.0 mi NNW 5.8 mph - N/A   Clear
2:54 AM 30.9 °F - 26.1 °F 82% 30.01 in 8.0 mi Calm Calm - N/A   Clear
3:54 AM 33.1 °F 28.7 °F 27.0 °F 78% 30.00 in 9.0 mi NNE 4.6 mph - N/A   Clear
4:54 AM 36.0 °F - 27.0 °F 70% 30.00 in 10.0 mi Calm Calm - N/A   Clear
5:54 AM 36.0 °F 32.1 °F 28.0 °F 73% 30.00 in 10.0 mi ESE 4.6 mph - N/A   Clear
6:54 AM 36.0 °F - 28.9 °F 76% 30.01 in 10.0 mi Calm Calm - N/A   Clear
7:54 AM 36.0 °F 30.3 °F 28.0 °F 73% 30.00 in 10.0 mi ESE 6.9 mph - N/A   Clear
8:54 AM 37.9 °F 30.9 °F 28.9 °F 70% 30.01 in 10.0 mi SE 10.4 mph - N/A   Clear
9:54 AM 39.9 °F 33.4 °F 28.9 °F 65% 30.03 in 10.0 mi ESE 10.4 mph - N/A   Clear
10:54 AM 44.1 °F 38.6 °F 30.0 °F 58% 30.02 in 10.0 mi ESE 10.4 mph - N/A   Clear
11:54 AM 46.9 °F - 30.0 °F 52% 30.02 in 10.0 mi SE 12.7 mph - N/A   Clear
12:54 PM 48.9 °F - 30.0 °F 48% 30.01 in 10.0 mi ESE 10.4 mph - N/A   Clear
1:54 PM 50.0 °F - 28.9 °F 44% 29.99 in 10.0 mi East 9.2 mph - N/A   Clear
2:54 PM 51.1 °F - 28.9 °F 43% 29.98 in 10.0 mi ENE 6.9 mph - N/A   Clear
3:54 PM 51.1 °F - 28.9 °F 43% 29.99 in 10.0 mi East 9.2 mph - N/A   Clear
4:54 PM 51.1 °F - 30.0 °F 44% 29.99 in 10.0 mi ENE 8.1 mph - N/A   Clear
5:54 PM 48.9 °F - 30.0 °F 48% 30.01 in 10.0 mi NE 4.6 mph - N/A   Clear
6:54 PM 45.0 °F 41.2 °F 30.0 °F 56% 30.03 in 10.0 mi ENE 6.9 mph - N/A   Clear
7:54 PM 42.1 °F 39.2 °F 30.0 °F 62% 30.06 in 9.0 mi NNE 4.6 mph - N/A   Clear
8:54 PM 36.0 °F 29.6 °F 28.9 °F 76% 30.07 in 9.0 mi NNW 8.1 mph - N/A   Clear
9:54 PM 36.0 °F 29.6 °F 28.9 °F 76% 30.09 in 10.0 mi NNW 8.1 mph - N/A   Clear
10:54 PM 34.0 °F 27.2 °F 28.0 °F 79% 30.11 in 10.0 mi NNW 8.1 mph - N/A   Clear
11:54 PM 33.1 °F 25.5 °F 27.0 °F 78% 30.11 in 9.0 mi NNW 9.2 mph - N/A   Clear